Temp
23 23 23 22 25 25 24 24 25 25 24 24 23 24 24 21 23 22 17 19 18 17 17 18 18 18 18 18 18 19 18 19 19 19 19 19 19 18 18 18 19 19 19 19 19 19 18 19 19
24 23 23 22 22 23 24 24 25 25 25 24 23 22 22 21 17 17 16 18 18 17 16 17 18 19 18 18 19 19 19 19 19 19 19 19 18 18 18 18 19 19 19 19 19 19 19 19 19
24 23 23 23 23 23 24 24 25 23 23 24 23 21 20 19 16 16 17 17 18 17 16 17 19 19 19 19 19 19 19 19 19 19 19 19 19 19 19 19 19 19 19 19 19 19 19 19 19
23 23 22 24 24 22 23 24 25 24 24 23 22 21 18 17 16 16 17 17 17 16 16 17 19 19 19 19 19 19 19 19 19 19 19 19 19 19 19 19 19 19 19 19 19 19 18 18 18
24 24 24 24 23 23 23 23 24 25 24 23 22 20 18 17 16 17 16 16 16 16 16 17 19 18 19 19 19 19 19 19 19 19 19 19 19 19 19 19 19 19 19 19 19 19 19 18 18
25 24 25 25 24 24 25 24 24 24 23 22 21 20 17 16 18 16 16 16 17 16 16 16 18 19 19 19 19 19 19 19 19 19 19 19 19 19 19 19 19 18 18 18 18 18 19 19 18
26 26 25 25 25 25 25 24 24 24 23 22 21 20 16 16 16 16 16 18 18 16 16 16 17 19 19 19 19 19 19 19 19 19 19 19 19 18 18 19 18 18 18 18 18 18 18 18 18
24 26 25 25 25 25 25 24 24 24 23 21 21 20 17 16 16 16 16 18 19 16 16 16 16 17 19 19 19 19 19 19 19 19 18 18 18 18 18 19 18 18 18 18 18 18 18 18 18
25 27 26 26 25 26 24 24 24 23 23 21 21 20 20 17 16 16 17 18 18 18 16 18 19 18 19 19 19 19 18 18 18 18 18 18 18 18 18 18 18 18 18 17 17 18 18 17 17
27 27 27 28 27 26 25 25 24 24 22 21 19 20 19 16 17 17 17 19 18 19 19 19 19 19 19 19 18 18 18 18 17 17 17 17 17 18 18 18 18 18 17 17 17 17 17 17 15
26 28 28 28 27 26 25 24 24 24 24 22 20 18 17 17 17 17 18 19 18 19 20 20 20 20 19 19 18 17 17 17 16 16 17 17 17 17 17 17 17 18 17 17 17 17 15 15 16
27 28 28 26 25 25 25 24 24 24 24 23 21 21 18 17 17 18 18 18 17 19 20 20 20 20 19 19 18 18 17 16 15 16 16 16 17 17 17 17 17 17 17 17 17 17 17 17 17
28 28 26 26 25 25 24 25 25 24 23 23 20 19 19 19 19 19 19 18 19 20 20 20 20 19 19 19 18 17 17 17 16 16 16 16 17 17 17 17 17 17 17 17 17 17 17 17 17
28 27 26 26 26 25 26 25 25 23 21 21 20 19 19 19 20 19 18 19 20 20 20 20 20 19 19 19 18 17 17 17 17 17 17 16 16 16 16 16 17 17 17 17 17 17 17 17 18
28 27 27 26 26 26 25 25 25 22 22 21 20 20 20 20 20 21 21 21 21 21 20 20 19 19 19 19 17 17 17 17 17 17 17 16 16 16 16 16 17 17 17 17 17 17 17 17 17
28 28 27 26 26 25 26 27 24 22 22 22 21 20 20 20 20 19 20 21 21 21 21 21 20 20 19 19 18 18 17 17 17 17 17 17 17 17 17 17 17 17 17 17 17 17 17 17 17
28 28 27 26 26 26 26 26 25 22 23 23 22 21 21 20 20 20 21 22 21 21 21 21 21 20 20 19 18 18 17 17 17 17 17 17 17 17 17 17 17 17 17 17 17 17 17 17 17
28 28 27 27 27 26 26 27 25 23 23 23 23 22 22 22 22 21 21 21 21 21 21 21 21 20 19 19 19 18 17 17 17 17 17 17 17 17 17 17 17 17 17 17 17 17 17 17 17
29 28 29 29 28 27 27 26 27 24 24 24 23 23 23 23 23 21 22 22 22 22 21 21 21 21 20 19 19 19 18 18 17 17 17 17 17 17 17 18 17 17 17 17 17 17 17 17 17
28 29 29 29 28 28 26 27 27 25 25 25 24 23 23 24 23 22 23 22 22 23 22 22 21 21 20 20 19 19 19 18 18 18 18 17 17 18 17 17 17 17 17 17 17 17 17 17 17
29 30 29 30 27 27 27 28 27 27 26 25 24 24 24 24 24 23 22 23 22 23 23 23 22 21 21 20 20 19 19 18 18 18 18 18 18 18 18 18 17 17 17 17 17 17 17 17 17
30 29 29 27 28 28 27 29 26 27 26 26 25 25 24 24 23 23 23 24 24 24 23 23 22 22 21 20 20 19 19 19 18 18 19 19 18 18 18 18 18 17 16 17 18 17 17 17 17
30 29 28 28 27 27 27 28 30 25 26 27 26 26 25 25 24 23 24 25 25 24 24 23 23 22 21 21 20 20 19 19 20 19 19 19 19 19 19 19 18 17 17 17 17 17 17 18 17
28 29 27 26 28 28 28 28 30 30 28 26 27 26 26 24 24 23 23 24 24 24 24 24 23 22 21 21 21 20 20 20 19 20 19 19 19 19 19 19 19 18 18 18 18 17 17 17 17
29 29 29 28 28 29 25 28 31 28 26 25 25 25 25 24 22 24 25 25 25 24 24 24 23 22 22 21 21 20 20 19 19 19 20 19 20 19 19 19 19 18 18 18 19 19 18 17 17
29 29 29 27 28 28 24 28 31 27 24 23 23 22 22 21 22 25 25 24 23 23 23 23 23 22 22 21 21 20 20 20 20 20 20 19 19 19 19 19 19 19 19 18 18 18 18 18 18
28 28 29 27 24 28 28 28 29 26 26 24 21 21 20 20 20 21 22 22 21 21 21 21 21 21 21 21 21 21 21 20 20 21 20 19 19 19 19 19 19 19 19 18 18 18 18 18 18
29 28 29 27 27 28 27 26 30 30 28 23 22 21 19 19 19 20 19 20 20 20 21 21 22 22 21 21 20 20 21 21 21 20 20 20 19 18 18 18 18 18 19 19 19 19 18 18 18
28 29 26 28 27 29 28 29 28 27 23 22 21 21 19 18 18 18 18 20 20 21 21 20 21 20 20 20 19 18 18 19 21 20 21 20 18 18 18 17 18 19 19 18 18 18 17 17 17
27 28 29 30 26 25 27 30 24 22 21 22 20 18 18 17 17 19 19 19 20 20 19 20 20 19 18 17 17 17 20 21 21 21 20 22 22 19 16 17 18 18 18 18 18 17 17 17 17
Height
1499 1498 1498 1497 1503 1501 1513 1514 1508 1512 1515 1517 1521 1521 1521 1525 1525 1533 1534 1539 1544 1547 1552 1555 1558 1560 1562 1565 1566 1568 1570 1572 1574 1576 1576 1577 1577 1578 1579 1580 1581 1581 1582 1583 1584 1584 1585 1585 1586
1499 1499 1499 1498 1511 1519 1519 1510 1509 1510 1513 1517 1521 1522 1523 1528 1529 1529 1535 1540 1545 1548 1553 1556 1559 1561 1563 1566 1567 1570 1572 1574 1575 1577 1578 1578 1579 1580 1581 1582 1582 1583 1583 1584 1585 1586 1587 1587 1588
1501 1501 1503 1502 1512 1522 1517 1511 1510 1514 1515 1517 1521 1523 1526 1530 1531 1533 1536 1541 1546 1549 1554 1557 1559 1562 1565 1567 1569 1572 1574 1575 1577 1578 1579 1580 1581 1582 1583 1583 1584 1584 1585 1585 1586 1587 1588 1589 1589
1501 1502 1505 1509 1514 1516 1514 1512 1510 1513 1517 1518 1520 1525 1530 1531 1533 1535 1538 1542 1548 1551 1556 1559 1561 1563 1566 1569 1571 1573 1575 1577 1579 1580 1581 1582 1582 1584 1584 1585 1586 1586 1586 1587 1587 1588 1589 1590 1591
1501 1501 1507 1513 1515 1515 1513 1512 1512 1512 1516 1518 1520 1527 1530 1533 1534 1535 1541 1545 1550 1554 1558 1560 1562 1565 1568 1570 1572 1574 1576 1579 1580 1582 1583 1584 1584 1584 1585 1586 1587 1587 1587 1588 1588 1589 1590 1590 1591
1501 1501 1509 1516 1515 1512 1511 1512 1512 1514 1517 1520 1523 1526 1533 1534 1536 1540 1544 1547 1552 1555 1559 1561 1564 1566 1569 1571 1573 1575 1577 1579 1581 1582 1584 1585 1585 1585 1586 1586 1587 1587 1588 1588 1588 1588 1589 1590 1591
1501 1502 1511 1512 1513 1512 1510 1511 1512 1516 1518 1522 1524 1528 1536 1536 1539 1542 1546 1549 1553 1557 1560 1563 1565 1567 1570 1572 1574 1576 1578 1580 1581 1582 1583 1585 1585 1586 1586 1586 1586 1587 1587 1588 1588 1588 1588 1589 1591
1502 1503 1509 1509 1513 1513 1511 1512 1513 1517 1520 1522 1524 1528 1534 1534 1538 1543 1547 1550 1554 1558 1561 1563 1566 1568 1570 1573 1575 1576 1578 1580 1581 1583 1584 1585 1586 1586 1586 1586 1586 1585 1586 1586 1587 1587 1588 1588 1589
1502 1505 1510 1507 1509 1509 1511 1512 1516 1517 1519 1522 1524 1525 1526 1531 1538 1544 1547 1551 1555 1558 1561 1563 1565 1567 1570 1572 1574 1576 1578 1579 1581 1583 1583 1586 1586 1586 1586 1586 1586 1585 1585 1585 1586 1586 1586 1587 1587
1504 1506 1504 1500 1502 1506 1510 1512 1515 1518 1521 1524 1524 1527 1529 1534 1537 1543 1546 1549 1553 1555 1558 1561 1564 1566 1568 1571 1573 1574 1577 1580 1579 1582 1583 1584 1585 1585 1585 1585 1585 1584 1584 1584 1585 1585 1585 1585 1586
1504 1503 1500 1499 1502 1505 1509 1513 1516 1517 1520 1521 1522 1527 1532 1535 1539 1543 1547 1549 1551 1554 1557 1559 1561 1564 1567 1569 1571 1574 1577 1578 1580 1580 1582 1584 1583 1583 1583 1583 1583 1583 1583 1583 1583 1583 1584 1585 1584
1504 1500 1501 1502 1504 1506 1509 1514 1516 1517 1518 1520 1524 1526 1531 1536 1539 1542 1545 1548 1551 1553 1556 1559 1561 1563 1566 1568 1571 1573 1577 1577 1578 1580 1580 1580 1582 1582 1582 1582 1581 1581 1581 1581 1581 1581 1582 1582 1582
1501 1501 1502 1503 1505 1507 1510 1514 1516 1519 1520 1521 1527 1531 1533 1536 1539 1542 1546 1548 1550 1553 1555 1558 1560 1562 1565 1567 1571 1574 1576 1576 1575 1578 1577 1579 1580 1580 1581 1580 1580 1578 1577 1579 1579 1579 1579 1580 1580
1500 1502 1504 1507 1508 1508 1511 1514 1516 1520 1521 1524 1527 1531 1535 1537 1539 1542 1545 1547 1549 1552 1554 1556 1559 1562 1564 1566 1570 1572 1572 1573 1574 1575 1576 1576 1576 1576 1576 1577 1578 1578 1577 1577 1578 1577 1577 1577 1578
1502 1504 1505 1509 1510 1511 1512 1516 1515 1519 1521 1524 1528 1531 1535 1537 1538 1540 1543 1546 1548 1551 1554 1556 1558 1561 1563 1566 1566 1568 1569 1569 1571 1572 1572 1572 1571 1571 1572 1573 1575 1577 1577 1576 1575 1576 1576 1576 1577
1504 1505 1512 1510 1511 1513 1514 1517 1516 1519 1521 1524 1527 1530 1532 1533 1536 1540 1543 1545 1548 1550 1553 1555 1557 1559 1561 1563 1565 1566 1567 1568 1569 1570 1570 1569 1568 1569 1570 1571 1573 1574 1574 1574 1574 1573 1574 1575 1575
1507 1513 1514 1514 1510 1511 1514 1515 1515 1519 1521 1523 1525 1528 1530 1534 1536 1539 1541 1543 1547 1550 1552 1553 1556 1557 1560 1562 1564 1564 1565 1566 1567 1567 1567 1567 1567 1567 1567 1569 1571 1572 1572 1572 1571 1571 1571 1573 1573
1514 1513 1512 1511 1507 1509 1513 1512 1513 1517 1520 1521 1524 1527 1529 1532 1532 1537 1539 1541 1545 1549 1551 1551 1553 1555 1558 1559 1560 1561 1562 1562 1563 1564 1565 1566 1566 1567 1567 1568 1568 1568 1569 1569 1569 1569 1570 1571 1571
1503 1506 1506 1500 1503 1507 1508 1509 1507 1513 1517 1519 1521 1524 1526 1527 1530 1533 1534 1537 1541 1545 1548 1548 1551 1554 1555 1556 1557 1558 1559 1560 1560 1561 1563 1564 1564 1565 1565 1565 1565 1566 1567 1568 1567 1567 1567 1567 1568
1504 1505 1503 1497 1499 1503 1507 1505 1504 1507 1507 1512 1517 1519 1521 1524 1528 1530 1532 1533 1537 1541 1544 1545 1549 1551 1552 1554 1555 1556 1557 1559 1559 1559 1560 1561 1562 1562 1563 1562 1563 1564 1565 1566 1566 1565 1564 1564 1566
1502 1502 1503 1502 1501 1503 1506 1503 1499 1499 1503 1508 1511 1513 1519 1520 1523 1526 1528 1531 1536 1538 1539 1542 1546 1548 1549 1552 1553 1554 1555 1557 1558 1557 1558 1559 1560 1560 1560 1559 1559 1558 1561 1562 1563 1564 1564 1564 1565
1502 1496 1499 1503 1505 1513 1504 1514 1501 1495 1497 1501 1502 1508 1512 1515 1518 1523 1524 1528 1532 1535 1536 1538 1541 1544 1546 1549 1551 1552 1553 1554 1556 1556 1555 1556 1557 1558 1558 1558 1556 1555 1557 1556 1558 1559 1560 1561 1562
1499 1497 1500 1501 1508 1509 1510 1514 1491 1498 1494 1490 1497 1500 1505 1507 1513 1518 1520 1524 1528 1531 1532 1535 1537 1540 1542 1544 1546 1548 1549 1550 1550 1552 1553 1553 1554 1554 1555 1556 1556 1554 1554 1555 1554 1555 1556 1557 1559
1498 1498 1506 1509 1508 1519 1512 1511 1497 1491 1491 1493 1493 1496 1500 1505 1511 1514 1516 1520 1522 1525 1526 1528 1532 1536 1538 1541 1541 1541 1544 1547 1546 1548 1551 1552 1552 1552 1552 1553 1554 1553 1552 1551 1551 1552 1554 1555 1556
1496 1501 1516 1523 1524 1522 1517 1514 1492 1486 1491 1493 1496 1497 1497 1500 1504 1509 1512 1514 1517 1519 1523 1526 1530 1532 1534 1535 1536 1538 1540 1542 1543 1545 1547 1549 1549 1550 1549 1550 1550 1550 1549 1548 1548 1548 1551 1553 1553
1494 1502 1516 1536 1527 1519 1520 1516 1489 1485 1490 1494 1494 1493 1495 1498 1500 1502 1503 1509 1513 1516 1519 1522 1525 1527 1529 1531 1532 1534 1535 1537 1538 1540 1542 1544 1546 1546 1546 1547 1548 1547 1546 1547 1547 1546 1547 1548 1549
1498 1506 1497 1516 1525 1518 1512 1502 1485 1484 1488 1494 1496 1496 1497 1500 1502 1503 1504 1507 1511 1513 1515 1519 1522 1523 1525 1527 1528 1528 1530 1531 1534 1535 1537 1541 1542 1545 1544 1544 1545 1544 1543 1544 1544 1544 1545 1546 1545
1488 1492 1507 1507 1525 1527 1515 1513 1496 1482 1486 1495 1497 1498 1500 1502 1504 1506 1508 1509 1512 1515 1516 1519 1521 1522 1523 1523 1525 1524 1525 1526 1530 1534 1535 1534 1535 1538 1538 1544 1545 1542 1541 1542 1543 1543 1543 1544 1544
1492 1492 1500 1496 1505 1510 1515 1501 1482 1485 1492 1496 1498 1500 1502 1504 1507 1509 1510 1512 1514 1515 1515 1516 1518 1519 1520 1521 1525 1520 1523 1525 1524 1529 1530 1529 1530 1531 1521 1539 1544 1541 1541 1540 1541 1541 1540 1539 1540
1484 1487 1486 1492 1512 1511 1505 1496 1483 1487 1493 1496 1500 1502 1503 1504 1506 1508 1510 1511 1513 1514 1515 1516 1516 1517 1518 1519 1520 1522 1517 1520 1522 1523 1526 1524 1521 1524 1505 1535 1541 1539 1539 1538 1537 1538 1536 1536 1535
Wind_Speed
3 3 4 3 1 2 3 5 2 12 8 5 18 3 4 5 0 2 20 28 31 30 28 26 23 22 23 22 21 20 19 17 16 15 13 12 11 12 12 10 11 11 10 9 9 10 11 10 13
5 5 4 2 4 2 3 2 10 5 9 19 8 8 4 4 3 15 26 29 31 30 25 25 23 22 23 22 21 21 21 20 18 15 13 13 13 13 11 10 11 11 11 9 8 10 10 10 10
7 4 2 3 2 2 3 2 6 9 14 17 6 7 3 3 5 28 24 31 31 29 26 25 23 23 23 23 23 22 20 18 16 14 13 13 12 12 10 9 9 9 10 9 8 8 9 7 8
4 2 4 3 5 2 2 7 15 11 8 5 10 7 6 2 18 16 30 30 29 29 26 25 24 23 23 23 23 20 18 17 15 13 12 12 11 10 9 8 7 7 7 7 6 6 9 8 7
3 2 4 3 3 2 2 2 3 4 6 7 3 5 8 2 11 24 29 27 28 28 25 25 24 24 24 22 21 19 17 15 13 12 11 11 10 8 7 6 5 6 6 6 6 6 7 8 6
1 1 3 3 3 3 3 6 4 5 8 10 14 9 4 9 19 28 27 26 27 27 24 24 23 23 22 21 19 17 15 13 11 12 11 10 8 8 7 6 5 5 6 7 7 6 7 8 9
2 2 2 2 1 3 4 7 3 6 12 7 12 6 6 13 20 27 24 26 27 25 24 23 23 23 22 20 17 14 13 13 12 12 11 9 7 7 6 5 5 5 6 8 9 10 10 9 10
2 1 2 1 1 2 8 4 6 7 5 16 5 7 9 19 25 25 24 25 27 24 23 23 22 23 23 20 16 13 12 13 12 11 9 8 7 7 7 6 6 6 6 7 8 10 11 12 12
2 1 1 1 3 4 13 6 6 5 15 5 2 8 17 27 29 25 26 25 26 27 24 25 25 25 23 20 15 12 13 13 12 8 6 6 6 7 7 6 6 7 7 8 9 10 11 12 14
1 1 3 3 5 6 12 13 10 6 12 6 10 15 24 27 30 27 27 28 27 29 29 27 26 25 23 19 16 14 14 12 11 11 10 8 10 9 8 7 7 7 9 10 10 10 11 12 12
4 2 2 1 6 14 15 10 5 12 7 9 20 24 24 26 26 26 25 25 25 25 26 27 26 25 23 20 18 15 11 11 13 11 14 19 15 11 10 10 12 13 11 13 11 12 9 11 12
3 4 2 3 8 12 13 13 6 10 1 10 22 28 27 25 26 27 25 23 23 25 24 24 23 23 21 20 17 12 13 13 10 14 16 12 15 14 12 12 12 14 17 13 12 12 13 12 13
5 3 6 7 8 8 12 6 2 10 6 13 22 23 24 23 22 22 21 20 21 22 22 22 22 22 21 20 16 15 16 15 13 16 8 14 15 17 17 17 17 13 11 13 12 13 14 13 13
5 12 12 8 9 6 6 4 0 5 12 16 22 22 21 21 21 21 21 20 21 18 18 19 20 20 21 19 16 17 17 16 17 15 14 11 16 18 20 22 17 10 9 9 10 12 15 14 14
8 10 8 8 6 3 6 3 1 10 13 17 19 20 20 20 20 22 21 21 18 16 15 16 17 18 19 18 16 16 16 18 19 17 16 14 14 15 14 14 16 12 13 11 12 11 11 12 13
2 3 3 5 7 4 2 1 3 13 15 16 17 19 20 22 21 20 20 20 18 16 15 13 13 16 17 17 16 16 18 17 18 17 15 12 10 11 13 13 14 15 16 14 13 12 13 14 15
1 3 4 4 9 6 4 1 7 14 14 15 16 18 19 17 18 20 21 21 20 17 15 15 15 15 15 16 16 16 15 16 17 16 13 9 7 6 9 11 11 12 13 13 13 15 14 13 13
2 3 5 7 11 8 8 8 10 17 16 17 17 18 18 18 21 19 21 22 20 20 18 15 15 18 16 16 16 17 17 17 17 16 13 10 8 8 10 11 11 14 15 14 14 13 16 15 14
2 5 8 8 8 11 13 9 10 19 18 17 17 17 19 19 15 17 20 22 22 21 20 21 17 16 18 19 19 19 19 18 16 14 13 13 13 12 13 15 15 16 16 14 16 15 16 15 15
5 3 6 7 9 12 5 13 10 17 24 23 20 20 21 20 16 17 20 23 22 23 22 22 19 18 17 18 18 18 17 15 13 12 12 12 12 12 15 17 18 16 17 16 17 14 14 13 14
6 5 2 4 4 5 1 6 10 12 20 20 22 23 20 22 21 19 22 23 20 20 21 21 19 19 18 18 19 18 16 15 13 11 10 11 13 14 15 16 15 17 17 18 19 16 12 9 11
1 5 5 2 3 1 5 4 5 6 13 17 25 24 24 25 23 20 22 22 20 19 21 20 20 20 20 19 19 18 17 13 10 9 8 8 10 13 15 15 14 17 14 12 16 17 13 12 12
2 2 3 3 4 2 4 4 3 1 9 17 22 26 25 27 24 22 24 23 21 19 21 21 20 20 21 21 18 17 18 12 9 9 10 9 8 9 10 8 9 8 12 12 13 13 15 14 12
2 3 4 4 1 3 2 5 8 5 2 2 7 23 24 21 19 18 20 22 21 22 21 23 22 22 20 20 19 18 17 15 12 11 13 10 8 9 10 11 10 5 6 6 9 13 14 15 15
4 0 2 3 3 1 3 5 8 5 3 5 9 8 16 16 15 17 18 19 20 21 23 23 22 22 23 23 22 21 19 17 16 13 12 12 10 8 8 8 8 7 7 6 8 9 10 12 14
4 2 7 3 2 2 1 5 4 3 4 8 11 3 5 10 14 17 18 17 17 18 20 24 24 22 24 24 24 23 22 20 18 17 15 14 13 9 8 10 9 8 7 8 6 6 9 11 13
6 11 3 3 1 3 2 4 11 3 1 10 13 11 8 9 11 13 10 10 10 11 13 17 20 22 23 25 27 24 22 23 22 20 18 15 11 12 12 12 12 9 7 5 4 4 5 7 8
4 8 6 3 4 5 3 3 5 4 6 10 10 10 11 11 11 10 8 8 6 4 6 6 7 13 19 20 27 26 24 23 23 24 21 19 14 10 18 12 13 9 6 4 3 4 6 8 10
5 5 3 3 1 3 4 3 4 4 6 8 9 8 9 11 10 10 9 6 3 2 3 3 5 4 7 7 22 21 20 18 23 22 18 18 12 9 18 19 13 9 7 6 8 9 11 13 15
1 2 5 5 5 1 2 4 1 1 7 10 13 11 9 10 10 9 6 4 4 6 8 8 10 7 7 12 19 24 13 18 28 29 34 28 31 9 9 14 10 9 9 11 12 15 16 17 18
Wind_Direction
11 56 68 20 88 67 69 49 58 120 141 168 155 196 151 58 32 89 148 157 160 152 150 151 147 147 146 146 146 142 140 140 139 136 133 129 127 127 129 113 117 118 128 129 133 129 126 118 118
34 118 48 326 70 55 86 13 117 119 141 142 132 118 73 86 61 136 147 158 163 154 150 152 152 152 150 150 149 145 142 139 139 136 136 134 131 126 129 128 123 125 129 132 133 134 129 129 125
51 165 343 56 74 69 93 77 100 105 136 156 113 77 61 38 124 143 157 156 161 155 153 153 155 153 150 149 146 145 144 142 144 145 143 143 138 133 130 127 123 121 128 131 140 144 141 138 140
21 102 57 71 85 84 89 109 114 120 120 133 117 78 69 145 142 155 156 157 160 157 155 155 157 154 153 153 152 152 150 150 150 150 152 151 147 145 145 147 147 145 142 150 146 160 153 150 157
10 79 70 89 79 119 198 166 143 126 121 106 116 100 103 55 170 152 155 158 161 158 158 159 162 158 158 161 159 157 156 158 157 158 162 161 161 161 166 171 176 180 182 173 174 177 185 185 172
52 76 71 82 85 154 167 163 167 119 116 115 109 106 80 126 160 155 158 161 166 163 161 165 166 163 163 164 164 165 165 171 172 170 170 172 174 173 179 188 200 208 210 204 202 202 201 202 197
48 62 77 108 67 160 133 143 154 128 128 116 136 90 126 147 158 158 160 165 167 168 166 168 169 171 169 170 172 178 182 184 186 180 182 184 187 187 192 210 215 217 224 223 220 216 218 215 210
79 69 147 147 182 84 136 121 147 127 85 133 128 157 170 169 160 160 163 167 172 173 174 174 176 178 179 179 184 190 195 192 191 193 198 198 203 209 216 219 224 237 235 229 226 225 225 223 221
59 88 241 219 181 113 145 124 139 94 136 92 40 145 161 157 161 161 168 171 179 183 184 186 186 188 191 196 201 203 202 194 192 198 217 235 230 228 233 240 242 247 236 232 237 234 228 227 226
183 228 220 220 170 145 150 143 148 138 143 75 96 131 150 155 164 169 173 177 185 190 193 195 198 200 205 210 212 209 202 201 205 224 235 244 250 243 243 247 247 265 250 239 236 241 233 230 226
181 247 187 221 157 148 148 138 163 155 182 180 158 149 156 162 170 175 181 186 190 192 196 201 206 210 214 216 211 212 206 219 235 238 252 251 252 242 248 251 261 269 268 241 235 238 232 227 228
241 289 152 140 151 143 158 148 156 174 259 174 165 161 160 167 176 181 186 191 195 199 203 206 209 213 214 214 213 223 219 226 235 254 267 248 239 254 256 260 269 281 256 236 242 247 248 243 230
229 104 75 136 136 130 138 149 111 178 105 148 155 162 167 172 179 186 190 197 201 208 212 215 217 217 217 217 216 222 236 250 267 251 275 250 256 264 269 263 262 290 228 228 246 252 247 242 234
113 115 117 115 128 138 147 120 115 135 143 145 161 172 180 179 182 187 197 201 205 211 220 221 224 224 223 221 218 231 238 245 247 254 268 281 270 266 268 264 245 254 225 237 253 258 247 240 232
128 99 102 110 134 141 135 137 261 154 158 160 170 182 189 192 194 199 202 208 212 220 226 227 227 229 230 228 229 229 229 233 244 254 264 279 276 263 257 244 230 241 238 261 263 258 234 229 222
60 110 177 140 161 155 236 231 152 163 163 173 180 190 198 202 206 210 213 218 219 225 230 225 227 226 230 231 228 234 236 241 249 256 266 279 280 251 251 234 229 250 238 251 255 250 235 235 236
65 218 215 175 192 170 220 111 172 179 182 184 193 196 203 212 215 219 224 229 229 232 238 237 230 228 228 233 239 240 244 248 251 255 260 265 267 254 227 220 234 237 241 247 257 247 243 243 245
216 236 210 211 199 215 209 237 172 188 196 198 199 205 207 214 225 223 231 237 239 239 241 243 233 232 230 231 237 244 249 253 255 256 260 257 252 252 232 231 238 249 252 252 256 253 247 247 246
234 247 255 231 186 209 230 233 214 193 204 210 207 211 217 219 219 224 237 242 248 246 240 239 234 232 232 235 237 245 255 262 263 266 262 263 257 252 251 247 248 251 258 261 255 260 250 253 247
245 223 265 290 187 203 210 244 229 196 210 211 211 215 218 228 225 227 240 247 250 248 241 240 240 239 238 238 242 251 264 269 270 267 260 262 262 262 263 261 260 265 269 266 263 269 269 256 238
205 222 249 294 82 167 182 267 230 218 218 212 220 224 226 227 227 225 233 239 244 249 249 251 242 241 242 240 244 250 259 268 273 265 268 277 275 273 273 269 265 260 256 266 269 271 273 264 248
256 198 169 172 188 272 227 295 247 241 225 214 219 221 222 230 232 227 237 245 243 249 245 249 246 241 242 245 246 248 258 267 272 284 279 276 281 276 277 288 282 276 256 260 260 259 261 264 264
358 193 66 190 147 271 183 264 299 332 242 234 224 226 225 226 226 228 237 244 247 248 249 241 245 241 241 244 248 250 252 254 255 268 277 285 287 279 269 266 303 276 258 261 254 259 255 261 259
145 80 79 89 209 260 11 243 289 273 353 349 265 237 234 233 226 230 239 242 244 241 241 240 237 238 237 242 239 240 248 252 252 255 277 283 288 294 273 269 276 287 311 281 254 254 262 262 263
73 275 223 181 194 297 3 210 273 275 333 294 314 292 246 224 208 221 232 236 234 232 238 237 239 242 240 238 241 243 241 246 257 261 264 275 289 296 270 279 287 287 298 314 274 259 270 274 280
164 277 292 271 247 135 144 226 261 331 323 347 13 8 164 185 207 202 203 220 233 234 238 240 239 243 243 239 243 240 236 236 240 247 252 265 282 280 275 275 277 278 278 295 296 256 256 274 276
145 205 237 142 107 238 181 255 276 312 332 61 64 82 108 145 154 177 186 208 216 223 241 242 251 246 242 242 241 237 240 240 237 236 238 252 274 279 275 267 264 257 270 277 288 265 260 272 276
224 143 179 224 226 251 192 267 251 315 53 71 75 92 113 130 144 145 138 156 188 222 254 268 269 266 254 257 249 246 239 241 244 244 241 238 234 282 275 265 253 234 227 233 257 282 291 297 292
152 183 68 111 289 261 271 246 218 239 52 82 92 95 114 129 129 119 118 121 132 172 212 147 144 208 250 270 265 247 241 252 252 243 257 243 230 274 204 248 224 221 243 265 285 293 296 297 293
136 205 204 249 185 67 312 259 121 123 100 121 113 105 110 141 148 152 159 172 172 171 147 116 114 137 211 237 238 239 244 269 269 261 264 241 260 293 225 200 225 250 273 288 293 294 293 291 290